sat.trackr.live / text

‹ back to catalog

STARLINK-6128

NORAD 57132 · 2023-090AH

PAYLOAD ACTIVE UNKNOWN

§ Identity

Operator
Country
US
Launch date
2023-06-23
Launch site
AFETR
Launch vehicle
Mass (kg)
RCS (m²)

Purposes: comms

External: N2YO · Heavens-Above · Gunter

§ Orbital elements

Epoch: 2026-05-24T15:59:29.644512Z

Period
94.27 min
Inclination
43.0018°
Eccentricity
0.0001125
Mean motion
15.27582527 rev/d
Perigee alt
482.3 km
Apogee alt
483.8 km
Semi-major
6,861.2 km
B*
4.4006e-5
RAAN
212.3309°
Arg perigee
267.9867°
Mean anomaly
92.0855°
Rev number
16,176

§ Raw data

STARLINK-61281 57132U 23090AH  26144.66631533  .00000949  00000+0  44006-4 0  99912 57132  43.0018 212.3309 0001125 267.9867  92.0855 15.27582527161764

JSON: /api/v1/satellites/57132 · /tle

For live sub-satellite position, see the globe view (requires WebGL).

§ Visibility from observer

Set your observer location to see the next 7 days of passes ≥ 10°. The values pass through the URL so the page stays shareable.

No JS? Fill the form by hand. The geolocation button needs JavaScript.